星链-11455 (STARLINK-11455)

导读

STARLINK-11455是美国SpaceX公司星链(Starlink)星座中的一颗低轨互联网通信卫星,于2024年12月31日发射入轨。星链项目旨在构建全球覆盖的卫星互联网星座,该卫星继承了星链卫星技术特征,搭载相控阵天线,支持高速卫星互联网接入,可服务地面终端及手机直连业务,通过多星组网实现全球范围无缝网络覆盖,助力偏远地区网络连接与应急通信保障。

基本信息
目录编号:
62463
目录名称:
STARLINK-11455
国际标识:
2024-254B
轨道中心:
EARTH
卫星名称:
星链-11455
卫星全名:
星链-11455 (STARLINK-11455)
卫星状态:
在轨 (已飞行530 天)
发射日期:
2024-12-31 UTC
国别 :
美国 (US)
星等 :
--
轨道信息
数据来源 国际轨道数据
星历时间: 2026-06-14T14:10:34+0800
12小时前
查看轨道信息
半长轴: 6733.973km
偏心率: 0.0002346
轨道倾角: 42.999°
近地点辐角 291.589°
升交点赤经 1.369°
平近点角 68.473°
近地点: 354.256km
远地点: 357.416km
周期: 91.657分钟
每日圈数: 15.710707
详细信息
固有亮度:
5
最大亮度:
2.5
卫星平台:
Starlink V1.0
覆盖范围:
全球
运营商:
太空探索技术公司
运营商所在国:
美国
制造商(研发单位):
太空探索技术公司
制造商所在国:
美国
使用方式:
暂无
卫星简介
Starlink 计划是 SpaceX 推出的全球卫星互联网项目,通过发射低轨道卫星,为全球尤其是偏远地区提供高速、低延迟的互联网服务。自 2019 年起,Starlink 已部署数千颗卫星,旨在缩小全球数字鸿沟,推动互联网普及。该项目还为军事、航空等行业提供通信支持,带来广泛经济效益。
2D轨道图
3D轨道图
轨道高度分析图
轨道倾角分析图
轨道综合分析图
查看轨道综合分析图